7 * 24
多渠道服务支持
STARLINK-36607是美国SpaceX星链计划的卫星,于2026年1月30日发射升空,属于低轨卫星星座组网卫星,承担全球互联网覆盖服务任务。星链项目通过批量部署低轨卫星,旨在为全球用户提供高速低成本的宽带接入,该卫星是星链星座扩容过程中的组成单元。
美国
(US)
| 数据来源 | 国际轨道数据 |
| 星历时间: | 2026-09-04T13:37:21+0800 16小时前 查看轨道信息 |
| 半长轴: | 6861.167km |
| 偏心率: | 0.0001489 |
| 轨道倾角: | 43.002° |
| 近地点辐角 | 262.748° |
| 升交点赤经 | 211.106° |
| 平近点角 | 97.320° |
| 近地点: | 482.008km |
| 远地点: | 484.052km |
| 周期: | 94.266分钟 |
| 每日圈数: | 15.275866 |
| 事件ID | 空间交会对象 | 最接近时刻(TCA) | 交会距离 | 交会风险概率(CRP) | 交会风险指数(CRI) | 操作 |
|---|---|---|---|---|---|---|
| CDM_260907-065305-760206-762021 |
STARLINK-30166
(57602)
STARLINK-36607
(67620) | 2026-09-07T 06:53:14+0000 |
1.388 km
极远距离 | 4.190254E-6 低风险 | 0.47 |